カタログに戻る

BREEZE-M DEB

LostHEO
NORAD 38631·DEBRIS·🇷🇺 Russia

打ち上げ Mar 14, 2008 から Baikonur Cosmodrome

Loading…

次のパス (今後24時間)

TLE

古いSource: Space-Track

元期: Nov 10, 2025, 08:17 UTC

1 38631U 08011CE  25314.34527934  .00010664  00000-0  30305-1 0  9992
2 38631  49.2384 308.0818 6410555 252.2397  30.7027  3.29281374168325

AllMySatでBREEZE-M DEBをリアルタイム追跡

Download on the App Store